Voltar ao catálogo

COSMOS 2251 DEB

AtivoVLEO
NORAD 34301·DEBRIS·🇷🇺 Russia

Lançado Jun 16, 1993 de Plesetsk Cosmodrome

Loading…

Próximas Passagens (próximas 24 horas)

TLE

AtualizadoSource: Space-Track

Época: Sep 14, 2026, 04:31 UTC

1 34301U 93036MX  26257.18859895  .00020117  00000-0  16249-2 0  9992
2 34301  74.0021 332.2225 0013211 331.5629  56.9932 14.99714879925103

Acompanhe COSMOS 2251 DEB em tempo real com AllMySat

Download on the App Store